[[{"header":{"parameterUnit":"m.s-1","parameterCategory":1,"la1":30.2991,"la2":30.254,"lo1":-89.0895,"lo2":-89.0444,"dy":0.0017,"dx":0.0017,"nx":28,"ny":28,"refTime":"2025-08-16T09:00:00:Z","depth":0,"parameterNumber":2,"parameterNumberName":"U-component_of_WINDS"},"data":[0,0,0,0,0,0,0,0,0,0,0,0,0,0,0,0,0,0,0,0,0,0,0,0,0,0,0,0,0,0,0,0,0,0,0,0,0,0,0,0,0,0,0,0,0,0,0,0,0,0,0,0,0,0,0,0,0,0,0.7389,0.7389,0,0.737,0.7369,0.7369,0.7385,0.7385,0.7386,0.7387,0.7365,0.7363,0.7362,0,0,0,0,0,0,0,0,0,0,0,0,0,0.7439,0.7438,0.7389,0.7389,0.7389,0.737,0.7369,0.7369,0.7385,0.7385,0.7386,0.7387,0.7365,0.7364,0.7362,0,0,0,0,0,0,0,0,0,0,0,0,0,0.7418,0.7438,0.7389,0.7394,0.7394,0.737,0.7369,0.7369,0.7384,0.7385,0.7386,0.7387,0.7365,0.7364,0.7362,0.7331,0,0,0.7356,0.7356,0,0,0,0,0,0,0,0,0.742,0.7417,0.7394,0.7394,0.7394,0.7381,0.7379,0.7356,0.7384,0.7388,0.7387,0.7388,0.7369,0.7367,0.7361,0.733,0.7329,0.7356,0.7355,0.7354,0.7354,0,0,0,0,0,0,0,0.7421,0.7418,0.7381,0.7393,0.7394,0.7397,0.7395,0.7375,0.7373,0.7388,0.7389,0.7387,0.7369,0.7363,0.7361,0.7328,0.7356,0.7355,0.7353,0.7353,0.7271,0.727,0,0,0,0,0,0,0.7422,0.7419,0.7382,0.7381,0.741,0.7395,0.7393,0.7384,0.7373,0.7373,0.7386,0.7387,0.7365,0.7363,0.736,0.7322,0.7354,0.7353,0.7352,0.7272,0.7271,0.727,0,0,0,0,0,0,0.7423,0.7419,0.7383,0.74,0.7396,0.7394,0.7383,0.7383,0.7376,0.7372,0.7371,0.7379,0.7366,0.7362,0.7338,0.7322,0.7352,0.735,0.7273,0.7272,0.727,0.7247,0,0,0,0,0,0,0.7425,0.7419,0.7407,0.74,0.7395,0.7361,0.7382,0.7382,0.7373,0.7375,0.7366,0.7365,0.7366,0.7341,0.7336,0.732,0.7349,0.7275,0.7273,0.7271,0.7249,0.7245,0.7241,0,0,0,0,0,0.7426,0.7401,0.7406,0.7402,0.738,0.736,0.7358,0.736,0.7372,0.736,0.7357,0.7365,0.7325,0.7338,0.7333,0.7316,0.7276,0.7273,0.7271,0.7251,0.7246,0.7242,0,0,0,0,0,0,0.7405,0.74,0.7406,0.7378,0.7369,0.7363,0.7348,0.7355,0.7342,0.7344,0.7348,0.7346,0.732,0.7316,0.7331,0.7286,0.7302,0.7299,0.7289,0.7284,0.728,0.7281,0.7347,0,0,0,0,0,0.7398,0.7383,0.7379,0.7354,0.735,0.735,0.7341,0.7344,0.7336,0.7332,0.7328,0.7319,0.7304,0.7294,0.728,0.725,0.7248,0.7236,0.7232,0.7229,0.7225,0.7209,0.7203,0.7262,0.7262,0.7262,0,0,0.7381,0.7376,0.7366,0.735,0.7344,0.7328,0.7346,0.7329,0.7317,0.7329,0.7306,0.7303,0.7293,0.7265,0.7253,0.7261,0.7209,0.7225,0.7223,0.7221,0.7206,0.72,0.7195,0.726,0.726,0.7261,0,0,0.7342,0.7338,0.7316,0.7311,0.7302,0.7302,0.7297,0.7291,0.7289,0.7266,0.7275,0.7261,0.7236,0.7229,0.7222,0.7183,0.7189,0.7178,0.7156,0.7141,0.7136,0.7132,0.7117,0.7112,0.7175,0.7175,0.7175,0,0.7322,0.7299,0.7305,0.7286,0.7279,0.7291,0.727,0.7264,0.725,0.7245,0.7255,0.7224,0.7218,0.7189,0.718,0.7174,0.7168,0.7178,0.7136,0.7132,0.7129,0.7115,0.7109,0.7174,0.7174,0.7174,0.7174,0,0.7275,0.7259,0.7243,0.7231,0.7222,0.7202,0.7204,0.7195,0.7199,0.7199,0.7175,0.717,0.7155,0.7149,0.7153,0.7121,0.7126,0.7136,0.7152,0.7121,0.7108,0.7103,0.7172,0.7172,0.7173,0.7173,0,0,0.7219,0.7213,0.7207,0.7202,0.7194,0.7181,0.7163,0.715,0.7141,0.7132,0.7116,0.7096,0.7105,0.7097,0.7101,0.7087,0.7056,0.7099,0.7099,0.7091,0.702,0.7012,0.7005,0.7062,0.7061,0.706,0.7021,0,0.718,0.7147,0.7153,0.7121,0.7106,0.7119,0.7103,0.7096,0.7096,0.7083,0.7083,0.7068,0.7082,0.7077,0.7065,0.7063,0.7042,0.7066,0.7046,0.7045,0.7046,0.6999,0.6989,0.6952,0.7016,0.7015,0.7014,0,0.7128,0.7119,0.7086,0.7082,0.7075,0.7061,0.7049,0.7038,0.7031,0.7032,0.7024,0.703,0.7012,0.703,0.7004,0.7021,0.7013,0.7011,0.701,0.7007,0.7027,0.6993,0.6941,0.6934,0.7007,0.7007,0.7008,0,0.709,0.7069,0.7047,0.7043,0.7037,0.7026,0.7024,0.7018,0.701,0.7001,0.6996,0.6984,0.6977,0.6968,0.6971,0.6984,0.6944,0.6963,0.6944,0.6944,0.6933,0.6933,0.6877,0.6931,0.6931,0.6931,0.6931,0,0.7044,0.7023,0.703,0.7016,0.6993,0.7,0.6978,0.6976,0.6972,0.6958,0.6968,0.6955,0.6961,0.6948,0.6951,0.6929,0.6926,0.6926,0.6926,0.6924,0.6923,0.6917,0.6919,0.693,0.693,0.693,0.693,0,0.6996,0.7,0.6977,0.6974,0.6973,0.6957,0.6954,0.6942,0.6943,0.6925,0.6922,0.6923,0.6909,0.6912,0.6896,0.6898,0.687,0.6875,0.6872,0.6873,0.6853,0.6854,0.679,0.6781,0.6842,0.6841,0.6841,0,0.6965,0.695,0.6947,0.6938,0.6935,0.6922,0.6914,0.6921,0.6913,0.6905,0.6893,0.688,0.6869,0.6846,0.6845,0.6833,0.6837,0.6815,0.6835,0.6833,0.6835,0.6835,0.6834,0.681,0.681,0.6809,0.6809,0,0.691,0.6914,0.6902,0.6892,0.6883,0.6875,0.6869,0.6861,0.6868,0.6858,0.6844,0.6836,0.682,0.6807,0.6796,0.6793,0.6802,0.6803,0.6798,0.6794,0.6793,0.6792,0.686,0.6804,0.6804,0.6805,0.6805,0.6805,0.6869,0.6856,0.6852,0.684,0.6836,0.683,0.6817,0.6818,0.6807,0.6795,0.68,0.6784,0.6779,0.6766,0.6762,0.6749,0.6757,0.6749,0.6747,0.6745,0.6742,0.6797,0.6747,0.6747,0.6747,0.6747,0.6748,0,0.6814,0.6812,0.6801,0.6792,0.6782,0.6793,0.6787,0.6777,0.6763,0.6758,0.6748,0.6732,0.672,0.672,0.6708,0.6698,0.6702,0.6695,0.6694,0.6693,0.6736,0.6741,0.6692,0.6692,0.6692,0.6692,0.6692,0.6692,0.6784,0.6762,0.6765,0.6742,0.6741,0.6725,0.6721,0.6715,0.6711,0.6693,0.6683,0.6684,0.6681,0.6669,0.6659,0.6659,0.6653,0.6645,0.6646,0.6685,0.669,0.6696,0.6701,0.6644,0.6644,0.6605,0.6604,0.6604]},{"header":{"parameterUnit":"m.s-1","parameterCategory":1,"la1":30.2991,"la2":30.254,"lo1":-89.0895,"lo2":-89.0444,"dy":0.0017,"dx":0.0017,"nx":28,"ny":28,"refTime":"2025-08-16T09:00:00:Z","depth":0,"parameterNumber":3,"parameterNumberName":"V-component_of_WINDS"},"data":[0,0,0,0,0,0,0,0,0,0,0,0,0,0,0,0,0,0,0,0,0,0,0,0,0,0,0,0,0,0,0,0,0,0,0,0,0,0,0,0,0,0,0,0,0,0,0,0,0,0,0,0,0,0,0,0,0,0,-0.8575,-0.8575,0,-0.8599,-0.8599,-0.86,-0.8615,-0.8615,-0.8615,-0.8615,-0.8638,-0.8639,-0.8639,0,0,0,0,0,0,0,0,0,0,0,0,0,-0.8539,-0.854,-0.8575,-0.8575,-0.8575,-0.8599,-0.8599,-0.86,-0.8615,-0.8615,-0.8615,-0.8615,-0.8638,-0.8639,-0.8639,0,0,0,0,0,0,0,0,0,0,0,0,0,-0.8558,-0.854,-0.8575,-0.8586,-0.8587,-0.8599,-0.8599,-0.86,-0.8615,-0.8615,-0.8615,-0.8615,-0.8638,-0.8639,-0.8639,-0.8642,0,0,-0.8642,-0.8642,0,0,0,0,0,0,0,0,-0.8557,-0.8559,-0.8584,-0.8585,-0.8586,-0.8604,-0.8595,-0.8614,-0.8615,-0.8604,-0.8615,-0.8615,-0.8627,-0.8628,-0.8633,-0.8643,-0.8644,-0.8642,-0.8642,-0.8643,-0.8643,0,0,0,0,0,0,0,-0.8556,-0.8558,-0.8584,-0.8584,-0.8586,-0.8589,-0.8592,-0.8599,-0.8614,-0.8605,-0.8606,-0.8609,-0.8627,-0.8632,-0.8633,-0.8644,-0.8642,-0.8643,-0.8643,-0.8643,-0.8657,-0.8657,0,0,0,0,0,0,-0.8553,-0.8557,-0.8583,-0.8585,-0.8572,-0.8589,-0.8592,-0.8598,-0.8614,-0.8617,-0.8609,-0.861,-0.863,-0.8632,-0.8634,-0.8637,-0.8643,-0.8644,-0.8644,-0.8657,-0.8657,-0.8657,0,0,0,0,0,0,-0.8552,-0.8555,-0.8582,-0.8571,-0.8575,-0.859,-0.8596,-0.8599,-0.8603,-0.8617,-0.862,-0.8611,-0.8631,-0.8633,-0.864,-0.8638,-0.8644,-0.8645,-0.8657,-0.8657,-0.8657,-0.8644,0,0,0,0,0,0,-0.8551,-0.8555,-0.8556,-0.8571,-0.8576,-0.8588,-0.8596,-0.8599,-0.8605,-0.8606,-0.862,-0.8622,-0.8631,-0.8638,-0.864,-0.864,-0.8645,-0.8657,-0.8657,-0.8657,-0.8645,-0.8644,-0.8643,0,0,0,0,0,-0.855,-0.8552,-0.8556,-0.8559,-0.8578,-0.8588,-0.8591,-0.8601,-0.8604,-0.8606,-0.8615,-0.8621,-0.8638,-0.8639,-0.8641,-0.8641,-0.8657,-0.8657,-0.8657,-0.8645,-0.8644,-0.8643,0,0,0,0,0,0,-0.8535,-0.8554,-0.8559,-0.8566,-0.8576,-0.8591,-0.8593,-0.86,-0.8608,-0.8608,-0.8621,-0.8624,-0.8629,-0.8636,-0.8636,-0.8644,-0.8649,-0.8649,-0.8639,-0.8638,-0.8637,-0.8635,-0.8646,0,0,0,0,0,-0.8533,-0.8541,-0.8556,-0.8561,-0.8565,-0.8578,-0.8583,-0.859,-0.86,-0.8604,-0.8614,-0.8622,-0.863,-0.8634,-0.8642,-0.8646,-0.8649,-0.8647,-0.8646,-0.8645,-0.8645,-0.8647,-0.8646,-0.8656,-0.8656,-0.8656,0,0,-0.8529,-0.854,-0.8543,-0.8558,-0.8566,-0.8573,-0.8581,-0.8588,-0.8593,-0.8605,-0.8612,-0.8619,-0.863,-0.8635,-0.8638,-0.8641,-0.8642,-0.8644,-0.8643,-0.8644,-0.8646,-0.8645,-0.8644,-0.8655,-0.8655,-0.8655,0,0,-0.8524,-0.8533,-0.8538,-0.8546,-0.8558,-0.8566,-0.8567,-0.8581,-0.8587,-0.8594,-0.8603,-0.8609,-0.8621,-0.8628,-0.8633,-0.863,-0.8636,-0.8632,-0.8626,-0.8628,-0.8627,-0.8627,-0.8625,-0.8624,-0.8632,-0.8632,-0.8632,0,-0.8516,-0.8527,-0.8539,-0.8545,-0.8551,-0.8563,-0.8567,-0.8574,-0.8588,-0.8591,-0.8594,-0.861,-0.8618,-0.8625,-0.8624,-0.8628,-0.8629,-0.8631,-0.8627,-0.8626,-0.8626,-0.8624,-0.8624,-0.8631,-0.8631,-0.8631,-0.8632,0,-0.8517,-0.8524,-0.8527,-0.854,-0.8546,-0.8551,-0.8563,-0.8568,-0.8574,-0.8582,-0.8589,-0.8599,-0.8608,-0.8611,-0.8617,-0.8618,-0.8619,-0.8624,-0.863,-0.8624,-0.8623,-0.8622,-0.863,-0.8631,-0.8631,-0.8631,0,0,-0.8504,-0.8524,-0.8524,-0.853,-0.8544,-0.855,-0.8555,-0.8565,-0.8568,-0.8577,-0.8581,-0.8591,-0.8596,-0.8602,-0.8609,-0.8611,-0.8607,-0.8615,-0.8616,-0.8613,-0.8608,-0.8603,-0.8603,-0.8611,-0.8611,-0.8611,-0.8607,0,-0.8501,-0.8512,-0.8522,-0.8529,-0.8535,-0.8546,-0.8551,-0.8559,-0.8567,-0.8572,-0.858,-0.8587,-0.8593,-0.8596,-0.8599,-0.8607,-0.8606,-0.8607,-0.8614,-0.8614,-0.8611,-0.8602,-0.8598,-0.8593,-0.8606,-0.8606,-0.8606,0,-0.8499,-0.8507,-0.8515,-0.8528,-0.8531,-0.8535,-0.8544,-0.855,-0.8559,-0.8565,-0.8571,-0.8579,-0.8584,-0.8588,-0.8595,-0.8596,-0.86,-0.8604,-0.8604,-0.8605,-0.861,-0.8602,-0.8592,-0.8591,-0.8606,-0.8606,-0.8606,0,-0.8488,-0.8501,-0.8507,-0.8512,-0.8527,-0.853,-0.8536,-0.8546,-0.8551,-0.8559,-0.8562,-0.857,-0.8574,-0.858,-0.859,-0.8592,-0.8595,-0.8601,-0.8599,-0.8599,-0.8599,-0.8599,-0.8589,-0.8602,-0.8602,-0.8602,-0.8602,0,-0.8483,-0.8487,-0.8503,-0.8506,-0.8511,-0.8522,-0.8526,-0.8533,-0.8542,-0.8547,-0.8556,-0.856,-0.8573,-0.8578,-0.8585,-0.8589,-0.8591,-0.8595,-0.8597,-0.8594,-0.8593,-0.8596,-0.8597,-0.8602,-0.8602,-0.8602,-0.8602,0,-0.8471,-0.8482,-0.849,-0.8503,-0.8507,-0.8509,-0.8521,-0.8524,-0.8532,-0.8538,-0.854,-0.8552,-0.8558,-0.8568,-0.8578,-0.8583,-0.8586,-0.8589,-0.8582,-0.8583,-0.8581,-0.8581,-0.8572,-0.8571,-0.8585,-0.8585,-0.8585,0,-0.8468,-0.8471,-0.8485,-0.8489,-0.8495,-0.8502,-0.8507,-0.8518,-0.8522,-0.8533,-0.8535,-0.8543,-0.8549,-0.8559,-0.8568,-0.8575,-0.8578,-0.8575,-0.858,-0.8576,-0.8578,-0.8577,-0.8577,-0.8574,-0.8574,-0.8573,-0.8573,0,-0.8459,-0.8464,-0.8471,-0.848,-0.8486,-0.8493,-0.8501,-0.8504,-0.8516,-0.8521,-0.8528,-0.8533,-0.8543,-0.855,-0.8558,-0.8564,-0.857,-0.8572,-0.8572,-0.8568,-0.8564,-0.8566,-0.8579,-0.8572,-0.8572,-0.8572,-0.8572,-0.8572,-0.8451,-0.8454,-0.8465,-0.8472,-0.8479,-0.8486,-0.849,-0.8498,-0.8504,-0.8513,-0.8519,-0.8526,-0.8534,-0.8546,-0.8551,-0.8556,-0.8559,-0.8559,-0.8559,-0.8559,-0.8557,-0.8564,-0.8558,-0.8558,-0.8558,-0.8558,-0.8558,0,-0.8443,-0.845,-0.8456,-0.8467,-0.8472,-0.8479,-0.8487,-0.8491,-0.8497,-0.8505,-0.8511,-0.8519,-0.8525,-0.8535,-0.8542,-0.8544,-0.8547,-0.8545,-0.8545,-0.8546,-0.8555,-0.8554,-0.8543,-0.8543,-0.8543,-0.8543,-0.8543,-0.8543,-0.8439,-0.8444,-0.8451,-0.8459,-0.8466,-0.8473,-0.8477,-0.8483,-0.8489,-0.8498,-0.8503,-0.851,-0.8518,-0.8525,-0.8531,-0.8534,-0.8536,-0.8533,-0.8536,-0.8544,-0.8546,-0.8547,-0.8546,-0.8534,-0.8534,-0.8527,-0.8527,-0.8527]}]]